Regional Weather Roundup
Issued by NWS Raleigh/Durham, NC

Home | Current Version | Previous Version | Text Only | Print | Product List | Glossary On
Versions: 1 2 3 4 5 6 7 8 9 10 11 12 13 14 15 16 17 18 19 20 21 22 23 24 25 26 27 28 29 30 31 32 33 34 35 36 37 38 39 40 41 42 43 44 45 46 47 48 49 50
000
ASUS42 KRAH 040310
RWRRAH
NORTH CAROLINA WEATHER ROUNDUP
NATIONAL WEATHER SERVICE RALEIGH NC
1100 PM EDT THU SEP 03 2015

NOTE: "FAIR" INDICATES FEW OR NO CLOUDS BELOW 12,000 FEET WITH NO
SIGNIFICANT WEATHER AND/OR OBSTRUCTIONS TO VISIBILITY.

NCZ001-053-055-056-065-067-040400-
WESTERN NORTH CAROLINA

CITY           SKY/WX    TMP DP  RH WIND       PRES   REMARKS
ASHEVILLE      CLEAR     74  63  68 N3        30.06R
JEFFERSON      CLEAR     69  60  73 CALM      30.12S
MORGANTON      CLEAR     69  67  93 CALM      30.04S
HICKORY        CLEAR     75  66  73 CALM      29.98S
RUTHERFORDTON  PTCLDY    79  65  61 CALM      29.99R
MOUNT AIRY     MOCLDY    73  71  93 CALM      30.01S FOG
BOONE          PTCLDY    63  63 100 CALM      30.12S FOG
$$

NCZ021-022-025-041-071-084-088-040400-
CENTRAL NORTH CAROLINA

CITY           SKY/WX    TMP DP  RH WIND       PRES   REMARKS
CHARLOTTE      CLEAR     83  60  45 VRB6      29.95S
GREENSBORO     MOCLDY    78  64  61 NW3       29.95S
WINSTON-SALEM  PTCLDY    79  69  71 CALM      29.97S
RALEIGH-DURHAM PTCLDY    71  68  90 CALM      29.93S
FORT BRAGG     PTCLDY    75  72  89 CALM      29.91S
FAYETTEVILLE   PTCLDY    78  71  79 SW5       29.91S
BURLINGTON     CLEAR     71  71 100 CALM      29.94S
LAURINBURG     CLEAR     76  71  85 CALM      29.92S
$$

NCZ011-015-027-028-043-044-047-080-103-040400-
NORTHEASTERN NORTH CAROLINA

CITY           SKY/WX    TMP DP  RH WIND       PRES   REMARKS
ROCKY MT-WILSO PTCLDY    75  72  90 CALM      29.91F FOG
GREENVILLE     PTCLDY    73  73 100 CALM      29.93S FOG
WASHINGTON     CLEAR     73  71  95 CALM      29.90F
ELIZABETH CITY CLEAR     73  71  93 CALM      29.90S
MANTEO         CLEAR     78  72  81 W3        29.90F
CAPE HATTERAS  CLEAR     77  72  84 W3        29.90S
$$

NCZ078-087-090-091-093-098-101-040400-
SOUTHEASTERN NORTH CAROLINA

CITY           SKY/WX    TMP DP  RH WIND       PRES   REMARKS
LUMBERTON      CLEAR     77  71  82 CALM      29.91S
GOLDSBORO      PTCLDY    76  71  86 CALM      29.90S
KINSTON        PTCLDY    74  73  96 CALM      29.92S
KENANSVILLE      N/A     72  70  95 CALM      29.92S FOG
NEW BERN       CLEAR     74  72  93 CALM      29.92S
CHERRY POINT   CLEAR     74  71  91 CALM      29.91S
BEAUFORT       PTCLDY    78  76  93 NW3       29.90S
JACKSONVILLE   PTCLDY    74  71  91 W3        29.90F
WILMINGTON     MOCLDY    74  70  87 CALM      29.90F
$$



USA.gov is the U.S. government's official web portal to all federal, state and local government web resources and services.